TimeCDT,TemperatureF,Dew PointF,Humidity,Sea Level PressureIn,VisibilityMPH,Wind Direction,Wind SpeedMPH,Gust SpeedMPH,PrecipitationIn,Events,Conditions,WindDirDegrees,DateUTC
12:53 AM,55.9,16.0,21,29.87,10.0,South,9.2,-,N/A,,Clear,170,2013-03-19 05:53:00
1:53 AM,55.9,16.0,21,29.87,10.0,South,10.4,-,N/A,,Clear,190,2013-03-19 06:53:00
2:53 AM,55.9,15.1,20,29.86,10.0,SSE,10.4,-,N/A,,Clear,160,2013-03-19 07:53:00
3:53 AM,53.1,15.1,22,29.86,10.0,SSE,9.2,-,N/A,,Clear,160,2013-03-19 08:53:00
4:53 AM,57.9,15.1,19,29.83,10.0,South,11.5,-,N/A,,Clear,190,2013-03-19 09:53:00
5:53 AM,57.9,15.1,19,29.83,10.0,SSW,13.8,-,N/A,,Clear,210,2013-03-19 10:53:00
6:53 AM,57.0,14.0,18,29.84,10.0,SSW,13.8,-,N/A,,Clear,210,2013-03-19 11:53:00
7:53 AM,55.0,16.0,22,29.86,10.0,SW,15.0,-,N/A,,Clear,220,2013-03-19 12:53:00
8:53 AM,59.0,16.0,19,29.88,10.0,SW,13.8,-,N/A,,Clear,220,2013-03-19 13:53:00
9:53 AM,70.0,18.0,14,29.89,10.0,SW,11.5,-,N/A,,Clear,220,2013-03-19 14:53:00
10:53 AM,77.0,17.1,10,29.86,10.0,WSW,13.8,-,N/A,,Clear,250,2013-03-19 15:53:00
11:53 AM,80.1,14.0,8,29.86,10.0,WSW,11.5,-,N/A,,Clear,250,2013-03-19 16:53:00
1:53 PM,82.9,15.1,8,29.82,10.0,West,9.2,16.1,N/A,,Clear,280,2013-03-19 18:53:00
2:53 PM,81.0,14.0,8,29.79,10.0,Variable,6.9,-,N/A,,Clear,0,2013-03-19 19:53:00
3:53 PM,82.0,15.1,8,29.77,10.0,NNW,15.0,23.0,N/A,,Clear,340,2013-03-19 20:53:00
4:53 PM,81.0,15.1,8,29.76,10.0,NW,15.0,21.9,N/A,,Clear,320,2013-03-19 21:53:00
5:53 PM,81.0,14.0,8,29.77,10.0,North,5.8,-,N/A,,Clear,360,2013-03-19 22:53:00
6:53 PM,79.0,14.0,9,29.78,10.0,North,4.6,-,N/A,,Clear,360,2013-03-19 23:53:00
7:53 PM,75.0,18.0,12,29.81,10.0,NNW,3.5,-,N/A,,Clear,340,2013-03-20 00:53:00
8:53 PM,72.0,17.1,12,29.84,10.0,North,4.6,-,N/A,,Clear,350,2013-03-20 01:53:00
9:39 PM,68.0,30.2,24,30.00,10.0,NE,19.6,28.8,N/A,,Clear,40,2013-03-20 02:39:00
9:53 PM,66.9,33.1,28,29.89,10.0,NE,19.6,25.3,N/A,,Clear,40,2013-03-20 02:53:00
10:53 PM,62.1,36.0,38,29.95,10.0,ENE,15.0,-,N/A,,Clear,60,2013-03-20 03:53:00
11:53 PM,60.1,37.9,44,29.99,10.0,NE,19.6,27.6,N/A,,Clear,50,2013-03-20 04:53:00